CT1AKV-10 Weather Reports


time (UTC)temp
C
wind
direction
speed
KPH
gust
KPH
rain 1hr
cm
rain 24hr
cm
rain mn
cm
humidity
%
barometer
mb
20180818040001 16 0 1258.5 0.0 0.00 0.00 0.00 58 1017.8
20180818033001 16 0 1266.6 0.0 0.00 0.00 0.00 52 1017.6
20180818031501 16 0 1134.6 0.0 5.36 0.00 0.00 43 1017.7
20180818030001 16 0 1211.8 0.0 0.00 0.00 0.00 36 1017.6
20180818023000 17 0 1237.6 0.0 5.36 0.00 0.00 31 1017.6
20180818021500 17 0 1105.6 0.0 0.00 0.00 0.00 28 1017.6
20180818020000 17 0 1244.0 0.0 0.00 0.00 0.00 23 1017.7
20180818014500 17 0 1141.0 0.0 0.00 0.00 0.00 17 1017.8
20180818010001 17 0 1290.7 0.0 5.36 0.00 0.00 10 1018.0
20180818004500 18 0 1282.6 0.0 5.36 0.00 0.00 10 1018.0
20180817234501 51 0 1219.9 0.0 0.00 0.00 0.00 10 1018.4
20180817230005 19 0 1118.5 0.0 0.00 0.00 0.00 10 1018.5
20180817223000 20 0 1157.1 0.0 0.00 0.00 0.00 10 1018.5
20180817221500 20 0 1026.8 0.0 0.00 0.00 0.00 10 1018.5
20180817220001 20 0 1184.5 0.0 0.00 0.00 0.00 10 1018.5
20180817214500 20 0 1236.0 0.0 0.00 0.00 0.00 10 1018.5
20180817213001 20 0 1231.1 0.0 5.36 0.00 0.00 10 1018.5
20180817211501 51 0 1202.2 0.0 0.00 0.00 0.00 10 1018.3
20180817210001 51 0 1160.3 0.0 0.00 0.00 0.00 10 1018.3
20180817204500 25 0 1244.0 0.0 0.00 0.00 0.00 10 1018.1
20180817203001 21 0 1158.7 0.0 0.00 0.00 0.00 10 1018.1
20180817201500 22 0 1091.1 0.0 0.00 0.00 0.00 10 1018.0
20180817194500 23 0 1290.7 0.0 0.00 0.00 0.00 10 1017.8
20180817191501 24 0 1290.7 0.0 0.00 0.00 0.00 10 1017.6
20180817181500 27 0 1105.6 0.0 0.00 0.00 0.00 18 1017.4
20180817174501 28 0 848.1 0.0 0.00 0.00 0.00 10 1017.5
20180817173001 28 0 74.0 0.0 0.00 0.00 0.00 10 1017.4
20180817170001 30 0 0.0 0.0 0.00 0.00 0.00 10 1017.5
20180817164501 30 0 0.0 0.0 0.00 0.00 0.00 10 1017.6
20180817163001 30 314 57.9 1.6 0.00 0.00 0.00 10 1017.7
20180817161501 30 0 0.0 0.0 0.00 0.00 0.00 10 1017.8
20180817160000 31 0 24.1 0.0 0.00 0.00 0.00 10 1017.7
20180817154501 31 0 0.0 0.0 0.00 0.00 0.00 10 1017.8
20180817150000 33 0 0.0 0.0 0.00 0.00 0.00 10 1018.0
20180817144500 34 0 0.0 1.6 0.00 0.00 0.00 10 1018.2
20180817140001 35 0 0.0 0.0 0.00 0.00 0.00 10 1018.7
20180817134501 36 0 0.0 0.0 5.36 0.00 0.00 10 1018.8
20180817130001 34 0 11.3 0.0 0.00 0.00 0.00 10 1019.1
20180817124501 34 0 144.8 0.0 0.00 0.00 0.00 89 1019.4
20180817123001 33 0 117.5 0.0 0.00 0.00 0.00 10 1019.6
20180817121501 32 0 0.0 0.0 0.00 0.00 0.00 10 1019.7
20180817120000 31 0 0.0 0.0 0.00 0.00 0.00 10 1019.7
20180817113000 31 0 0.0 0.0 0.00 0.00 0.00 10 1020.1
20180817111501 31 0 0.0 0.0 0.00 0.00 0.00 10 1020.1
20180817110000 30 0 0.0 0.0 0.00 0.00 0.00 10 1020.3